Time,TemperatureF,DewpointF,PressureIn,WindDirection,WindDirectionDegrees,WindSpeedMPH,WindSpeedGustMPH,Humidity,HourlyPrecipIn,Conditions,Clouds,dailyrainin,SolarRadiationWatts/m^2,SoftwareType,DateUTC
2013-07-22 00:01:00,76.1,73.9,30.00,SW,216,0.0,1.0,93,0.00,,---,0.00,0.00,VWS V14.01,2013-07-22 04:01:00,
2013-07-22 00:03:00,76.1,73.9,30.00,SW,216,0.0,1.0,93,0.00,,---,0.00,0.00,VWS V14.01,2013-07-22 04:03:00,
2013-07-22 00:04:00,76.1,73.9,30.00,SW,216,0.0,1.0,93,0.00,,---,0.00,0.00,VWS V14.01,2013-07-22 04:04:00,
2013-07-22 00:06:00,76.0,73.8,30.00,SW,216,0.0,2.0,93,0.00,,---,0.00,0.00,VWS V14.01,2013-07-22 04:06:00,
2013-07-22 00:11:00,76.0,74.2,30.00,SW,216,2.0,4.0,94,0.00,,---,0.00,0.00,VWS V14.01,2013-07-22 04:11:00,
2013-07-22 00:17:00,75.9,74.1,30.00,SW,216,0.0,4.0,94,0.00,,---,0.00,0.00,VWS V14.01,2013-07-22 04:17:00,
2013-07-22 00:22:00,75.8,73.9,29.99,SW,216,0.0,2.0,94,0.00,,---,0.00,0.00,VWS V14.01,2013-07-22 04:22:00,
2013-07-22 00:27:00,75.8,73.9,29.99,SW,216,0.0,0.0,94,0.00,,---,0.00,0.00,VWS V14.01,2013-07-22 04:27:00,
2013-07-22 00:32:00,75.8,73.9,29.99,SW,216,0.0,0.0,94,0.00,,---,0.00,0.00,VWS V14.01,2013-07-22 04:32:00,
2013-07-22 00:37:00,75.7,73.8,29.99,SW,216,0.0,5.0,94,0.00,,---,0.00,0.00,VWS V14.01,2013-07-22 04:37:00,
2013-07-22 00:42:00,75.6,73.8,29.99,SW,216,0.0,0.0,94,0.00,,---,0.00,0.00,VWS V14.01,2013-07-22 04:42:00,
2013-07-22 00:47:00,75.5,73.7,29.99,SW,216,0.0,1.0,94,0.00,,---,0.00,0.00,VWS V14.01,2013-07-22 04:47:00,
2013-07-22 00:52:00,75.5,73.7,29.99,SW,215,0.0,1.0,94,0.00,,---,0.00,0.00,VWS V14.01,2013-07-22 04:52:00,
2013-07-22 00:57:00,75.4,73.6,29.98,SW,215,0.0,0.0,94,0.00,,---,0.00,0.00,VWS V14.01,2013-07-22 04:57:00,
2013-07-22 01:03:00,75.4,73.6,29.98,SW,215,0.0,2.0,94,0.00,,---,0.00,0.00,VWS V14.01,2013-07-22 05:03:00,
2013-07-22 01:08:00,75.3,73.5,29.98,SW,215,0.0,0.0,94,0.00,,---,0.00,0.00,VWS V14.01,2013-07-22 05:08:00,
2013-07-22 01:13:00,75.2,73.4,29.97,SW,215,0.0,3.0,94,0.00,,---,0.00,0.00,VWS V14.01,2013-07-22 05:13:00,
2013-07-22 01:18:00,75.2,73.4,29.97,SW,215,0.0,3.0,94,0.00,,---,0.00,0.00,VWS V14.01,2013-07-22 05:18:00,
2013-07-22 01:23:00,75.1,73.3,29.97,SW,215,3.0,4.0,94,0.00,,---,0.00,0.00,VWS V14.01,2013-07-22 05:23:00,
2013-07-22 01:28:00,75.1,73.3,29.97,SW,215,0.0,1.0,94,0.00,,---,0.00,0.00,VWS V14.01,2013-07-22 05:28:00,
2013-07-22 01:33:00,75.0,73.2,29.96,SW,215,0.0,0.0,94,0.00,,---,0.00,0.00,VWS V14.01,2013-07-22 05:33:00,
2013-07-22 01:38:00,74.9,73.1,29.96,SW,214,3.0,5.0,94,0.00,,---,0.00,0.00,VWS V14.01,2013-07-22 05:38:00,
2013-07-22 01:43:00,74.9,73.1,29.96,SW,214,0.0,4.0,94,0.00,,---,0.00,0.00,VWS V14.01,2013-07-22 05:43:00,
2013-07-22 01:49:00,74.8,73.0,29.96,SW,219,0.0,6.0,94,0.00,,---,0.00,0.00,VWS V14.01,2013-07-22 05:49:00,
2013-07-22 01:54:00,74.8,73.0,29.96,SW,219,4.0,4.0,94,0.00,,---,0.00,0.00,VWS V14.01,2013-07-22 05:54:00,
2013-07-22 01:59:00,74.7,72.9,29.96,SW,216,3.0,7.0,94,0.00,,---,0.00,0.00,VWS V14.01,2013-07-22 05:59:00,
2013-07-22 02:04:00,74.7,72.9,29.96,SW,216,0.0,5.0,94,0.00,,---,0.00,0.00,VWS V14.01,2013-07-22 06:04:00,
2013-07-22 02:09:00,74.7,72.9,29.96,SW,220,3.0,6.0,94,0.00,,---,0.00,0.00,VWS V14.01,2013-07-22 06:09:00,
2013-07-22 02:14:00,74.6,72.8,29.95,SW,220,2.0,6.0,94,0.00,,---,0.00,0.00,VWS V14.01,2013-07-22 06:14:00,
2013-07-22 02:19:00,74.7,72.9,29.95,SSW,211,5.0,7.0,94,0.00,,---,0.00,0.00,VWS V14.01,2013-07-22 06:19:00,
2013-07-22 02:24:00,74.6,72.8,29.95,SW,227,8.0,9.0,94,0.00,,---,0.00,0.00,VWS V14.01,2013-07-22 06:24:00,
2013-07-22 02:29:00,74.6,72.8,29.95,SW,236,7.0,12.0,94,0.00,,---,0.00,0.00,VWS V14.01,2013-07-22 06:29:00,
2013-07-22 02:34:00,74.6,72.8,29.95,SSW,213,6.0,10.0,94,0.00,,---,0.00,0.00,VWS V14.01,2013-07-22 06:34:00,
2013-07-22 02:39:00,74.6,72.8,29.95,SW,232,7.0,9.0,94,0.00,,---,0.00,0.00,VWS V14.01,2013-07-22 06:39:00,
2013-07-22 02:44:00,74.6,72.8,29.95,SW,228,4.0,11.0,94,0.00,,---,0.00,0.00,VWS V14.01,2013-07-22 06:44:00,
2013-07-22 02:50:00,74.6,72.8,29.95,WSW,240,3.0,10.0,94,0.00,,---,0.00,0.00,VWS V14.01,2013-07-22 06:50:00,
2013-07-22 02:55:00,74.7,72.9,29.95,SW,232,6.0,8.0,94,0.00,,---,0.00,0.00,VWS V14.01,2013-07-22 06:55:00,
2013-07-22 03:00:00,74.7,72.9,29.95,SW,236,3.0,6.0,94,0.00,,---,0.00,0.00,VWS V14.01,2013-07-22 07:00:00,
2013-07-22 03:05:00,74.7,72.9,29.95,SW,232,8.0,9.0,94,0.00,,---,0.00,0.00,VWS V14.01,2013-07-22 07:05:00,
2013-07-22 03:10:00,74.7,72.9,29.94,WSW,251,0.0,9.0,94,0.00,,---,0.00,0.00,VWS V14.01,2013-07-22 07:10:00,
2013-07-22 03:15:00,74.7,72.9,29.94,WSW,242,3.0,7.0,94,0.00,,---,0.00,0.00,VWS V14.01,2013-07-22 07:15:00,
2013-07-22 03:20:00,74.7,72.9,29.94,WSW,241,2.0,5.0,94,0.00,,---,0.00,0.00,VWS V14.01,2013-07-22 07:20:00,
2013-07-22 03:25:00,74.7,72.9,29.94,WSW,243,0.0,5.0,94,0.00,,---,0.00,0.00,VWS V14.01,2013-07-22 07:25:00,
2013-07-22 03:30:00,74.7,72.9,29.94,WSW,238,3.0,5.0,94,0.00,,---,0.00,0.00,VWS V14.01,2013-07-22 07:30:00,
2013-07-22 03:35:00,74.7,72.9,29.94,SW,235,3.0,5.0,94,0.00,,---,0.00,0.00,VWS V14.01,2013-07-22 07:35:00,
2013-07-22 03:40:00,74.7,72.9,29.93,WSW,240,0.0,5.0,94,0.00,,---,0.00,0.00,VWS V14.01,2013-07-22 07:40:00,
2013-07-22 03:45:00,74.7,72.9,29.93,SW,231,0.0,6.0,94,0.00,,---,0.00,0.00,VWS V14.01,2013-07-22 07:45:00,
2013-07-22 03:50:00,74.8,73.0,29.93,SW,229,2.0,3.0,94,0.00,,---,0.00,0.00,VWS V14.01,2013-07-22 07:50:00,
2013-07-22 03:55:00,74.7,72.9,29.93,SW,227,0.0,0.0,94,0.00,,---,0.00,0.00,VWS V14.01,2013-07-22 07:55:00,
2013-07-22 04:01:00,74.7,72.9,29.93,SW,235,5.0,5.0,94,0.00,,---,0.00,0.00,VWS V14.01,2013-07-22 08:01:00,
2013-07-22 04:06:00,74.7,72.9,29.93,WSW,240,4.0,6.0,94,0.00,,---,0.00,0.00,VWS V14.01,2013-07-22 08:06:00,
2013-07-22 04:11:00,74.6,72.8,29.93,SW,236,0.0,5.0,94,0.00,,---,0.00,0.00,VWS V14.01,2013-07-22 08:11:00,
2013-07-22 04:16:00,74.5,72.7,29.93,SW,234,0.0,0.0,94,0.00,,---,0.00,0.00,VWS V14.01,2013-07-22 08:16:00,
2013-07-22 04:21:00,74.5,72.7,29.93,SW,234,0.0,0.0,94,0.00,,---,0.00,0.00,VWS V14.01,2013-07-22 08:21:00,
2013-07-22 04:26:00,74.4,72.6,29.93,SW,234,2.0,4.0,94,0.00,,---,0.00,0.00,VWS V14.01,2013-07-22 08:26:00,
2013-07-22 04:32:00,74.3,72.5,29.93,WSW,237,0.0,0.0,94,0.00,,---,0.00,0.00,VWS V14.01,2013-07-22 08:32:00,
2013-07-22 04:37:00,74.3,72.5,29.93,WSW,237,0.0,0.0,94,0.00,,---,0.00,0.00,VWS V14.01,2013-07-22 08:37:00,
2013-07-22 04:42:00,74.2,72.4,29.93,WSW,237,0.0,0.0,94,0.00,,---,0.00,0.00,VWS V14.01,2013-07-22 08:42:00,
2013-07-22 04:47:00,74.2,72.4,29.94,WSW,237,0.0,0.0,94,0.00,,---,0.00,0.00,VWS V14.01,2013-07-22 08:47:00,
2013-07-22 04:52:00,74.1,72.3,29.94,WSW,237,0.0,0.0,94,0.00,,---,0.00,0.00,VWS V14.01,2013-07-22 08:52:00,
2013-07-22 04:57:00,74.0,72.2,29.94,WSW,237,0.0,1.0,94,0.00,,---,0.00,0.00,VWS V14.01,2013-07-22 08:57:00,
2013-07-22 05:02:00,74.0,72.2,29.94,WSW,237,0.0,0.0,94,0.00,,---,0.00,0.00,VWS V14.01,2013-07-22 09:02:00,
2013-07-22 05:08:00,73.9,72.1,29.94,WSW,237,0.0,1.0,94,0.00,,---,0.00,0.00,VWS V14.01,2013-07-22 09:08:00,
2013-07-22 05:13:00,73.9,72.1,29.94,WSW,237,0.0,5.0,94,0.00,,---,0.00,0.00,VWS V14.01,2013-07-22 09:13:00,
2013-07-22 05:18:00,73.8,72.0,29.94,WSW,237,0.0,3.0,94,0.00,,---,0.00,0.00,VWS V14.01,2013-07-22 09:18:00,
2013-07-22 05:23:00,73.8,72.3,29.94,WSW,237,0.0,3.0,95,0.00,,---,0.00,0.00,VWS V14.01,2013-07-22 09:23:00,
2013-07-22 05:28:00,73.7,72.2,29.94,WSW,237,0.0,5.0,95,0.00,,---,0.00,0.00,VWS V14.01,2013-07-22 09:28:00,
2013-07-22 05:33:00,73.7,72.2,29.95,WSW,237,0.0,1.0,95,0.00,,---,0.00,0.00,VWS V14.01,2013-07-22 09:33:00,
2013-07-22 05:38:00,73.6,72.1,29.95,WSW,237,0.0,2.0,95,0.00,,---,0.00,0.00,VWS V14.01,2013-07-22 09:38:00,
2013-07-22 05:43:00,73.6,72.1,29.95,WSW,237,0.0,0.0,95,0.00,,---,0.00,0.00,VWS V14.01,2013-07-22 09:43:00,
2013-07-22 05:49:00,73.5,72.0,29.95,WSW,237,0.0,1.0,95,0.00,,---,0.00,0.00,VWS V14.01,2013-07-22 09:49:00,
2013-07-22 05:54:00,73.5,72.0,29.95,WSW,237,4.0,4.0,95,0.00,,---,0.00,0.00,VWS V14.01,2013-07-22 09:54:00,
2013-07-22 05:59:00,73.5,72.0,29.96,SW,236,0.0,4.0,95,0.00,,---,0.00,0.00,VWS V14.01,2013-07-22 09:59:00,
2013-07-22 06:04:00,73.4,71.9,29.95,SW,236,0.0,1.0,95,0.00,,---,0.00,0.00,VWS V14.01,2013-07-22 10:04:00,
2013-07-22 06:09:00,73.4,71.9,29.95,SW,236,0.0,1.0,95,0.00,,---,0.00,0.00,VWS V14.01,2013-07-22 10:09:00,
2013-07-22 06:14:00,73.3,71.8,29.95,SW,236,1.0,4.0,95,0.00,,---,0.00,0.00,VWS V14.01,2013-07-22 10:14:00,
2013-07-22 06:20:00,73.3,71.8,29.95,SW,236,1.0,1.0,95,0.00,,---,0.00,0.00,VWS V14.01,2013-07-22 10:20:00,
2013-07-22 06:25:00,73.2,71.7,29.96,SW,236,0.0,4.0,95,0.00,,---,0.00,0.00,VWS V14.01,2013-07-22 10:25:00,
2013-07-22 06:30:00,73.2,71.7,29.97,SW,236,2.0,5.0,95,0.00,,---,0.00,0.00,VWS V14.01,2013-07-22 10:30:00,
2013-07-22 06:35:00,73.1,71.6,29.97,SW,236,3.0,5.0,95,0.00,,---,0.00,5.00,VWS V14.01,2013-07-22 10:35:00,
2013-07-22 06:40:00,73.1,71.6,29.97,SW,236,0.0,4.0,95,0.00,,---,0.00,7.00,VWS V14.01,2013-07-22 10:40:00,
2013-07-22 06:45:00,73.1,71.6,29.97,SW,236,3.0,4.0,95,0.00,,---,0.00,11.00,VWS V14.01,2013-07-22 10:45:00,
2013-07-22 06:50:00,73.1,71.6,29.97,SW,236,0.0,0.0,95,0.00,,---,0.00,16.00,VWS V14.01,2013-07-22 10:50:00,
2013-07-22 06:55:00,73.0,71.5,29.97,SW,236,0.0,0.0,95,0.00,,---,0.00,16.00,VWS V14.01,2013-07-22 10:55:00,
2013-07-22 07:01:00,73.0,71.5,29.98,SW,236,0.0,0.0,95,0.00,,---,0.00,18.00,VWS V14.01,2013-07-22 11:01:00,
2013-07-22 07:06:00,73.1,71.6,29.98,SW,236,3.0,4.0,95,0.00,,---,0.00,19.00,VWS V14.01,2013-07-22 11:06:00,
2013-07-22 07:11:00,73.1,71.6,29.98,SW,236,0.0,0.0,95,0.00,,---,0.00,21.00,VWS V14.01,2013-07-22 11:11:00,
2013-07-22 07:16:00,73.0,71.5,29.98,SW,236,0.0,0.0,95,0.00,,---,0.00,25.00,VWS V14.01,2013-07-22 11:16:00,
2013-07-22 07:21:00,73.0,71.5,29.98,SW,236,0.0,0.0,95,0.00,,---,0.00,32.00,VWS V14.01,2013-07-22 11:21:00,
2013-07-22 07:26:00,73.1,71.9,29.98,SW,236,0.0,0.0,96,0.00,,---,0.00,39.00,VWS V14.01,2013-07-22 11:26:00,
2013-07-22 07:31:00,73.1,71.9,29.98,SW,236,0.0,1.0,96,0.00,,---,0.00,93.00,VWS V14.01,2013-07-22 11:31:00,
2013-07-22 07:36:00,73.3,72.1,29.98,SW,236,0.0,1.0,96,0.00,,---,0.00,69.00,VWS V14.01,2013-07-22 11:36:00,
2013-07-22 07:42:00,73.3,72.1,29.99,SW,236,0.0,0.0,96,0.00,,---,0.00,62.00,VWS V14.01,2013-07-22 11:42:00,
2013-07-22 07:47:00,73.4,72.2,29.98,SW,236,1.0,1.0,96,0.00,,---,0.00,58.00,VWS V14.01,2013-07-22 11:47:00,
2013-07-22 07:52:00,73.4,72.2,29.98,SW,236,0.0,0.0,96,0.00,,---,0.00,83.00,VWS V14.01,2013-07-22 11:52:00,
2013-07-22 07:57:00,73.5,72.3,29.99,SW,236,0.0,4.0,96,0.00,,---,0.00,81.00,VWS V14.01,2013-07-22 11:57:00,
2013-07-22 08:02:00,73.6,72.4,29.99,SW,236,0.0,1.0,96,0.00,,---,0.00,77.00,VWS V14.01,2013-07-22 12:02:00,
2013-07-22 08:07:00,73.7,72.5,29.99,SW,236,0.0,0.0,96,0.00,,---,0.00,109.00,VWS V14.01,2013-07-22 12:07:00,
2013-07-22 08:12:00,73.8,72.6,29.99,SW,236,0.0,0.0,96,0.00,,---,0.00,111.00,VWS V14.01,2013-07-22 12:12:00,
2013-07-22 08:17:00,73.9,72.7,29.99,SW,236,0.0,5.0,96,0.00,,---,0.00,134.00,VWS V14.01,2013-07-22 12:17:00,
2013-07-22 08:23:00,74.0,72.8,29.99,SW,233,0.0,5.0,96,0.00,,---,0.00,113.00,VWS V14.01,2013-07-22 12:23:00,
2013-07-22 08:28:00,74.1,72.9,29.99,SW,231,5.0,7.0,96,0.00,,---,0.00,160.00,VWS V14.01,2013-07-22 12:28:00,
2013-07-22 08:33:00,74.2,72.7,29.99,SW,235,4.0,9.0,95,0.00,,---,0.00,114.00,VWS V14.01,2013-07-22 12:33:00,
2013-07-22 08:38:00,74.4,72.9,30.00,WSW,250,3.0,9.0,95,0.00,,---,0.00,162.00,VWS V14.01,2013-07-22 12:38:00,
2013-07-22 08:43:00,74.6,73.1,30.00,SW,231,5.0,5.0,95,0.00,,---,0.00,183.00,VWS V14.01,2013-07-22 12:43:00,
2013-07-22 08:48:00,74.7,73.2,30.00,SW,222,6.0,8.0,95,0.00,,---,0.00,204.00,VWS V14.01,2013-07-22 12:48:00,
2013-07-22 08:53:00,74.9,73.4,30.00,WSW,243,6.0,8.0,95,0.00,,---,0.00,195.00,VWS V14.01,2013-07-22 12:53:00,
2013-07-22 08:58:00,75.0,73.2,30.00,WSW,247,7.0,8.0,94,0.00,,---,0.00,237.00,VWS V14.01,2013-07-22 12:58:00,
2013-07-22 09:04:00,75.3,73.5,30.00,WSW,247,0.0,3.0,94,0.00,,---,0.00,243.00,VWS V14.01,2013-07-22 13:04:00,
2013-07-22 09:09:00,75.5,73.3,30.00,WSW,246,2.0,11.0,93,0.00,,---,0.00,264.00,VWS V14.01,2013-07-22 13:09:00,
2013-07-22 09:14:00,75.8,73.6,30.00,West,259,2.0,10.0,93,0.00,,---,0.00,292.00,VWS V14.01,2013-07-22 13:14:00,
2013-07-22 09:19:00,76.0,73.5,30.00,WSW,250,4.0,11.0,92,0.00,,---,0.00,186.00,VWS V14.01,2013-07-22 13:19:00,
2013-07-22 09:24:00,76.2,73.4,30.00,West,269,8.0,9.0,91,0.00,,---,0.00,174.00,VWS V14.01,2013-07-22 13:24:00,
2013-07-22 09:29:00,76.3,73.5,30.00,WSW,257,5.0,9.0,91,0.00,,---,0.00,169.00,VWS V14.01,2013-07-22 13:29:00,
2013-07-22 09:34:00,76.5,73.7,30.00,WSW,246,5.0,9.0,91,0.00,,---,0.00,156.00,VWS V14.01,2013-07-22 13:34:00,
2013-07-22 09:39:00,76.5,73.3,30.00,SW,232,5.0,10.0,90,0.00,,---,0.00,146.00,VWS V14.01,2013-07-22 13:39:00,
2013-07-22 09:44:00,76.6,73.8,30.00,West,261,4.0,7.0,91,0.00,,---,0.00,169.00,VWS V14.01,2013-07-22 13:44:00,
2013-07-22 09:50:00,76.7,73.6,30.00,WSW,238,5.0,11.0,90,0.00,,---,0.00,139.00,VWS V14.01,2013-07-22 13:50:00,
2013-07-22 09:55:00,76.6,73.4,30.00,WSW,240,8.0,13.0,90,0.00,,---,0.00,114.00,VWS V14.01,2013-07-22 13:55:00,
2013-07-22 10:00:00,76.6,73.4,30.00,WSW,245,8.0,10.0,90,0.00,,---,0.00,125.00,VWS V14.01,2013-07-22 14:00:00,
2013-07-22 10:05:00,76.6,73.4,30.01,WSW,257,4.0,9.0,90,0.00,,---,0.00,200.00,VWS V14.01,2013-07-22 14:05:00,
2013-07-22 10:10:00,76.7,73.9,30.01,WSW,252,3.0,5.0,91,0.00,,---,0.00,348.00,VWS V14.01,2013-07-22 14:10:00,
2013-07-22 10:15:00,77.0,74.2,30.01,SW,232,3.0,5.0,91,0.00,,---,0.00,327.00,VWS V14.01,2013-07-22 14:15:00,
2013-07-22 10:20:00,77.1,73.9,30.00,WNW,284,3.0,9.0,90,0.00,,---,0.00,543.00,VWS V14.01,2013-07-22 14:20:00,
2013-07-22 10:25:00,77.5,74.0,30.00,WSW,240,0.0,8.0,89,0.00,,---,0.00,408.00,VWS V14.01,2013-07-22 14:25:00,
2013-07-22 10:30:00,77.9,74.4,30.00,West,262,6.0,11.0,89,0.00,,---,0.00,408.00,VWS V14.01,2013-07-22 14:30:00,
2013-07-22 10:35:00,78.3,74.5,30.01,WSW,242,6.0,8.0,88,0.00,,---,0.00,473.00,VWS V14.01,2013-07-22 14:35:00,
2013-07-22 10:40:00,78.7,74.5,30.01,SW,229,0.0,8.0,87,0.00,,---,0.00,390.00,VWS V14.01,2013-07-22 14:40:00,
2013-07-22 10:45:00,79.2,74.3,30.01,SSW,213,6.0,14.0,85,0.00,,---,0.00,387.00,VWS V14.01,2013-07-22 14:45:00,
2013-07-22 10:50:00,79.3,74.4,30.01,West,263,3.0,4.0,85,0.00,,---,0.00,271.00,VWS V14.01,2013-07-22 14:50:00,
2013-07-22 10:55:00,79.3,74.4,30.01,WSW,251,4.0,7.0,85,0.00,,---,0.00,313.00,VWS V14.01,2013-07-22 14:55:00,
2013-07-22 11:01:00,79.3,74.4,30.01,West,263,6.0,7.0,85,0.00,,---,0.00,323.00,VWS V14.01,2013-07-22 15:01:00,
2013-07-22 11:06:00,79.4,74.8,30.01,WSW,244,3.0,10.0,86,0.00,,---,0.00,357.00,VWS V14.01,2013-07-22 15:06:00,
2013-07-22 11:11:00,79.6,74.7,30.01,SW,222,6.0,11.0,85,0.00,,---,0.00,390.00,VWS V14.01,2013-07-22 15:11:00,
2013-07-22 11:16:00,79.9,75.0,30.01,SW,217,6.0,8.0,85,0.00,,---,0.00,452.00,VWS V14.01,2013-07-22 15:16:00,
2013-07-22 11:21:00,80.1,74.8,30.01,WSW,246,7.0,10.0,84,0.00,,---,0.00,809.00,VWS V14.01,2013-07-22 15:21:00,
2013-07-22 11:26:00,80.6,75.0,30.01,WSW,247,5.0,13.0,83,0.00,,---,0.00,904.00,VWS V14.01,2013-07-22 15:26:00,
2013-07-22 11:32:00,81.1,75.1,30.01,SW,232,6.0,6.0,82,0.00,,---,0.00,320.00,VWS V14.01,2013-07-22 15:32:00,
2013-07-22 11:37:00,81.3,75.3,30.01,WSW,255,3.0,9.0,82,0.00,,---,0.00,336.00,VWS V14.01,2013-07-22 15:37:00,
2013-07-22 11:42:00,81.5,75.5,30.01,WSW,255,8.0,11.0,82,0.00,,---,0.00,937.00,VWS V14.01,2013-07-22 15:42:00,
2013-07-22 11:47:00,81.8,75.8,30.00,West,269,7.0,9.0,82,0.00,,---,0.00,294.00,VWS V14.01,2013-07-22 15:47:00,
2013-07-22 11:52:00,81.9,75.5,30.00,West,272,0.0,7.0,81,0.00,,---,0.00,316.00,VWS V14.01,2013-07-22 15:52:00,
2013-07-22 11:57:00,82.1,74.9,30.00,WSW,246,8.0,14.0,79,0.00,,---,0.00,325.00,VWS V14.01,2013-07-22 15:57:00,
2013-07-22 12:03:00,82.4,76.0,30.00,WSW,244,11.0,14.0,81,0.00,,---,0.00,325.00,VWS V14.01,2013-07-22 16:03:00,
2013-07-22 12:08:00,82.6,75.1,30.01,West,281,7.0,10.0,78,0.00,,---,0.00,403.00,VWS V14.01,2013-07-22 16:08:00,
2013-07-22 12:13:00,82.5,74.6,30.01,WSW,250,8.0,15.0,77,0.00,,---,0.00,417.00,VWS V14.01,2013-07-22 16:13:00,
2013-07-22 12:18:00,82.4,74.9,30.01,SW,230,8.0,15.0,78,0.00,,---,0.00,406.00,VWS V14.01,2013-07-22 16:18:00,
2013-07-22 12:23:00,82.5,75.3,30.01,WSW,250,7.0,11.0,79,0.00,,---,0.00,380.00,VWS V14.01,2013-07-22 16:23:00,
2013-07-22 12:28:00,82.4,75.2,30.01,WSW,248,5.0,8.0,79,0.00,,---,0.00,455.00,VWS V14.01,2013-07-22 16:28:00,
2013-07-22 12:33:00,82.5,74.9,30.00,WSW,255,5.0,12.0,78,0.00,,---,0.00,527.00,VWS V14.01,2013-07-22 16:33:00,
2013-07-22 12:39:00,83.1,76.3,30.00,WSW,255,7.0,12.0,80,0.00,,---,0.00,636.00,VWS V14.01,2013-07-22 16:39:00,
2013-07-22 12:44:00,83.3,74.9,30.00,SW,234,6.0,13.0,76,0.00,,---,0.00,371.00,VWS V14.01,2013-07-22 16:44:00,
2013-07-22 12:49:00,83.4,75.4,30.00,WSW,246,9.0,11.0,77,0.00,,---,0.00,1158.00,VWS V14.01,2013-07-22 16:49:00,
2013-07-22 12:54:00,83.6,75.2,30.00,WSW,245,4.0,11.0,76,0.00,,---,0.00,387.00,VWS V14.01,2013-07-22 16:54:00,
2013-07-22 12:59:00,83.6,76.4,29.99,WSW,237,7.0,10.0,79,0.00,,---,0.00,355.00,VWS V14.01,2013-07-22 16:59:00,
2013-07-22 13:04:00,83.8,75.4,29.99,West,276,9.0,12.0,76,0.00,,---,0.00,571.00,VWS V14.01,2013-07-22 17:04:00,
2013-07-22 13:10:00,83.7,74.9,30.00,WSW,245,11.0,14.0,75,0.00,,---,0.00,338.00,VWS V14.01,2013-07-22 17:10:00,
2013-07-22 13:15:00,83.6,75.2,29.99,WSW,252,4.0,8.0,76,0.00,,---,0.00,241.00,VWS V14.01,2013-07-22 17:15:00,
2013-07-22 13:20:00,83.5,75.5,29.99,SW,232,5.0,9.0,77,0.00,,---,0.00,478.00,VWS V14.01,2013-07-22 17:20:00,
2013-07-22 13:25:00,83.8,76.2,29.99,West,262,8.0,10.0,78,0.00,,---,0.00,1201.00,VWS V14.01,2013-07-22 17:25:00,
2013-07-22 13:30:00,84.0,75.6,29.98,WSW,255,8.0,11.0,76,0.00,,---,0.00,457.00,VWS V14.01,2013-07-22 17:30:00,
2013-07-22 13:35:00,84.1,76.5,29.99,SW,221,6.0,14.0,78,0.00,,---,0.00,1144.00,VWS V14.01,2013-07-22 17:35:00,
2013-07-22 13:40:00,84.0,75.2,29.99,West,269,10.0,18.0,75,0.00,,---,0.00,373.00,VWS V14.01,2013-07-22 17:40:00,
2013-07-22 13:45:00,84.1,76.5,29.98,SW,232,4.0,16.0,78,0.00,,---,0.00,1130.00,VWS V14.01,2013-07-22 17:45:00,
2013-07-22 13:50:00,84.3,75.9,29.98,SW,234,10.0,10.0,76,0.00,,---,0.00,232.00,VWS V14.01,2013-07-22 17:50:00,
2013-07-22 13:55:00,84.2,75.8,29.98,SSW,208,10.0,10.0,76,0.00,,---,0.00,290.00,VWS V14.01,2013-07-22 17:55:00,
2013-07-22 14:01:00,84.4,75.6,29.98,WSW,257,9.0,12.0,75,0.00,,---,0.00,1049.00,VWS V14.01,2013-07-22 18:01:00,
2013-07-22 14:06:00,84.5,75.3,29.98,WSW,245,12.0,14.0,74,0.00,,---,0.00,492.00,VWS V14.01,2013-07-22 18:06:00,
2013-07-22 14:11:00,84.6,76.2,29.97,WSW,246,11.0,17.0,76,0.00,,---,0.00,1148.00,VWS V14.01,2013-07-22 18:11:00,
2013-07-22 14:17:00,84.8,76.8,29.97,SW,234,15.0,15.0,77,0.00,,---,0.00,1114.00,VWS V14.01,2013-07-22 18:17:00,
2013-07-22 14:22:00,85.0,75.8,29.97,SW,234,9.0,14.0,74,0.00,,---,0.00,510.00,VWS V14.01,2013-07-22 18:22:00,
2013-07-22 14:27:00,85.0,75.8,29.97,WSW,248,8.0,15.0,74,0.00,,---,0.00,1083.00,VWS V14.01,2013-07-22 18:27:00,
2013-07-22 14:32:00,85.1,75.1,29.97,WSW,244,9.0,17.0,72,0.00,,---,0.00,1034.00,VWS V14.01,2013-07-22 18:32:00,
2013-07-22 14:37:00,85.3,75.7,29.97,SW,228,8.0,14.0,73,0.00,,---,0.00,1078.00,VWS V14.01,2013-07-22 18:37:00,
2013-07-22 14:43:00,85.2,75.6,29.96,WSW,245,12.0,17.0,73,0.00,,---,0.00,343.00,VWS V14.01,2013-07-22 18:43:00,
2013-07-22 14:48:00,84.7,75.9,29.96,WSW,244,8.0,10.0,75,0.00,,---,0.00,364.00,VWS V14.01,2013-07-22 18:48:00,
2013-07-22 14:53:00,84.6,76.2,29.95,SSW,201,4.0,9.0,76,0.00,,---,0.00,933.00,VWS V14.01,2013-07-22 18:53:00,
2013-07-22 14:59:00,85.0,75.8,29.95,WSW,250,9.0,11.0,74,0.00,,---,0.00,947.00,VWS V14.01,2013-07-22 18:59:00,
2013-07-22 15:04:00,85.2,75.6,29.95,WSW,252,9.0,12.0,73,0.00,,---,0.00,969.00,VWS V14.01,2013-07-22 19:04:00,
2013-07-22 15:09:00,85.5,76.3,29.95,SW,220,7.0,14.0,74,0.00,,---,0.00,1011.00,VWS V14.01,2013-07-22 19:09:00,
2013-07-22 15:15:00,86.1,76.8,29.95,SW,222,8.0,14.0,74,0.00,,---,0.00,918.00,VWS V14.01,2013-07-22 19:15:00,
2013-07-22 15:20:00,86.6,76.5,29.95,WSW,242,8.0,11.0,72,0.00,,---,0.00,889.00,VWS V14.01,2013-07-22 19:20:00,
2013-07-22 15:25:00,86.7,75.8,29.94,WSW,255,5.0,14.0,70,0.00,,---,0.00,867.00,VWS V14.01,2013-07-22 19:25:00,
2013-07-22 15:30:00,86.9,76.4,29.94,WSW,238,8.0,8.0,71,0.00,,---,0.00,865.00,VWS V14.01,2013-07-22 19:30:00,
2013-07-22 15:35:00,87.2,76.7,29.94,West,259,6.0,15.0,71,0.00,,---,0.00,844.00,VWS V14.01,2013-07-22 19:35:00,
2013-07-22 15:40:00,87.3,75.9,29.94,SW,227,6.0,11.0,69,0.00,,---,0.00,831.00,VWS V14.01,2013-07-22 19:40:00,
2013-07-22 15:45:00,87.4,75.6,29.94,SW,229,6.0,6.0,68,0.00,,---,0.00,262.00,VWS V14.01,2013-07-22 19:45:00,
2013-07-22 15:51:00,87.2,74.9,29.94,SSW,194,6.0,7.0,67,0.00,,---,0.00,272.00,VWS V14.01,2013-07-22 19:51:00,
2013-07-22 15:56:00,87.0,75.2,29.94,WSW,249,10.0,12.0,68,0.00,,---,0.00,687.00,VWS V14.01,2013-07-22 19:56:00,
2013-07-22 16:01:00,86.9,75.1,29.94,WSW,250,8.0,10.0,68,0.00,,---,0.00,911.00,VWS V14.01,2013-07-22 20:01:00,
2013-07-22 16:06:00,86.9,75.5,29.94,WSW,241,11.0,12.0,69,0.00,,---,0.00,209.00,VWS V14.01,2013-07-22 20:06:00,
2013-07-22 16:11:00,86.6,75.7,29.94,SW,221,5.0,8.0,70,0.00,,---,0.00,225.00,VWS V14.01,2013-07-22 20:11:00,
2013-07-22 16:16:00,86.1,75.6,29.93,WSW,242,10.0,12.0,71,0.00,,---,0.00,279.00,VWS V14.01,2013-07-22 20:16:00,
2013-07-22 16:17:00,86.1,75.6,29.93,SW,236,10.0,12.0,71,0.00,,---,0.00,279.00,VWS V14.01,2013-07-22 20:17:00,
2013-07-22 16:18:00,86.0,75.9,29.93,SW,229,6.0,12.0,72,0.00,,---,0.00,881.00,VWS V14.01,2013-07-22 20:18:00,
2013-07-22 16:19:00,86.0,76.3,29.93,WSW,248,10.0,12.0,73,0.00,,---,0.00,875.00,VWS V14.01,2013-07-22 20:19:00,
2013-07-22 16:21:00,86.0,76.3,29.93,SSW,213,6.0,9.0,73,0.00,,---,0.00,833.00,VWS V14.01,2013-07-22 20:21:00,
2013-07-22 16:26:00,86.3,76.6,29.93,West,264,7.0,10.0,73,0.00,,---,0.00,721.00,VWS V14.01,2013-07-22 20:26:00,
2013-07-22 16:31:00,86.7,77.4,29.92,WSW,242,6.0,7.0,74,0.00,,---,0.00,330.00,VWS V14.01,2013-07-22 20:31:00,
2013-07-22 16:37:00,87.1,77.4,29.93,SW,230,3.0,4.0,73,0.00,,---,0.00,810.00,VWS V14.01,2013-07-22 20:37:00,
2013-07-22 16:42:00,87.5,77.4,29.92,SW,215,8.0,11.0,72,0.00,,---,0.00,765.00,VWS V14.01,2013-07-22 20:42:00,
2013-07-22 16:43:00,87.6,77.5,29.92,SW,217,7.0,11.0,72,0.00,,---,0.00,765.00,VWS V14.01,2013-07-22 20:43:00,
2013-07-22 16:48:00,87.7,76.3,29.92,SW,224,8.0,15.0,69,0.00,,---,0.00,677.00,VWS V14.01,2013-07-22 20:48:00,
2013-07-22 16:53:00,87.6,76.6,29.92,SW,236,4.0,8.0,70,0.00,,---,0.00,666.00,VWS V14.01,2013-07-22 20:53:00,
2013-07-22 16:58:00,87.4,76.4,29.92,SW,223,8.0,10.0,70,0.00,,---,0.00,638.00,VWS V14.01,2013-07-22 20:58:00,
2013-07-22 17:03:00,87.4,76.0,29.92,SW,224,4.0,12.0,69,0.00,,---,0.00,613.00,VWS V14.01,2013-07-22 21:03:00,
2013-07-22 17:09:00,87.5,76.1,29.92,SW,229,6.0,10.0,69,0.00,,---,0.00,596.00,VWS V14.01,2013-07-22 21:09:00,
2013-07-22 17:14:00,87.6,75.3,29.92,SW,234,6.0,13.0,67,0.00,,---,0.00,577.00,VWS V14.01,2013-07-22 21:14:00,
2013-07-22 17:19:00,87.7,75.4,29.92,SSW,205,7.0,10.0,67,0.00,,---,0.00,571.00,VWS V14.01,2013-07-22 21:19:00,
2013-07-22 17:24:00,87.9,75.1,29.92,SW,220,6.0,10.0,66,0.00,,---,0.00,557.00,VWS V14.01,2013-07-22 21:24:00,
2013-07-22 17:29:00,87.9,75.6,29.92,SW,228,6.0,7.0,67,0.00,,---,0.00,548.00,VWS V14.01,2013-07-22 21:29:00,
2013-07-22 17:34:00,88.0,76.1,29.92,SW,222,9.0,10.0,68,0.00,,---,0.00,445.00,VWS V14.01,2013-07-22 21:34:00,
2013-07-22 17:40:00,88.0,75.2,29.91,WSW,242,5.0,7.0,66,0.00,,---,0.00,429.00,VWS V14.01,2013-07-22 21:40:00,
2013-07-22 17:45:00,87.9,75.6,29.92,WSW,240,4.0,8.0,67,0.00,,---,0.00,452.00,VWS V14.01,2013-07-22 21:45:00,
2013-07-22 17:50:00,87.9,74.2,29.92,WSW,237,5.0,11.0,64,0.00,,---,0.00,392.00,VWS V14.01,2013-07-22 21:50:00,
2013-07-22 17:55:00,87.7,74.5,29.92,SW,221,6.0,11.0,65,0.00,,---,0.00,313.00,VWS V14.01,2013-07-22 21:55:00,
2013-07-22 18:00:00,87.6,75.7,29.92,SSW,203,6.0,9.0,68,0.00,,---,0.00,373.00,VWS V14.01,2013-07-22 22:00:00,
2013-07-22 18:05:00,87.4,75.1,29.92,SW,218,5.0,10.0,67,0.00,,---,0.00,339.00,VWS V14.01,2013-07-22 22:05:00,
2013-07-22 18:10:00,87.3,75.0,29.91,SW,223,0.0,11.0,67,0.00,,---,0.00,454.00,VWS V14.01,2013-07-22 22:10:00,
2013-07-22 18:15:00,87.2,75.4,29.91,SSW,205,8.0,10.0,68,0.00,,---,0.00,446.00,VWS V14.01,2013-07-22 22:15:00,
2013-07-22 18:20:00,87.3,75.9,29.91,SW,232,5.0,10.0,69,0.00,,---,0.00,404.00,VWS V14.01,2013-07-22 22:20:00,
2013-07-22 18:26:00,87.4,75.6,29.91,SW,229,6.0,10.0,68,0.00,,---,0.00,383.00,VWS V14.01,2013-07-22 22:26:00,
2013-07-22 18:31:00,87.4,75.6,29.91,SW,221,2.0,4.0,68,0.00,,---,0.00,181.00,VWS V14.01,2013-07-22 22:31:00,
2013-07-22 18:36:00,87.2,75.4,29.91,SW,221,0.0,10.0,68,0.00,,---,0.00,90.00,VWS V14.01,2013-07-22 22:36:00,
2013-07-22 18:41:00,86.8,75.4,29.90,SSW,208,0.0,6.0,69,0.00,,---,0.00,81.00,VWS V14.01,2013-07-22 22:41:00,
2013-07-22 18:46:00,86.2,74.8,29.91,SW,224,3.0,6.0,69,0.00,,---,0.00,128.00,VWS V14.01,2013-07-22 22:46:00,
2013-07-22 18:51:00,85.8,75.3,29.91,SSW,213,0.0,7.0,71,0.00,,---,0.00,146.00,VWS V14.01,2013-07-22 22:51:00,
2013-07-22 18:56:00,85.5,75.9,29.91,SW,223,0.0,0.0,73,0.00,,---,0.00,186.00,VWS V14.01,2013-07-22 22:56:00,
2013-07-22 19:02:00,85.4,75.8,29.91,SW,226,2.0,2.0,73,0.00,,---,0.00,118.00,VWS V14.01,2013-07-22 23:02:00,
2013-07-22 19:07:00,85.2,75.6,29.91,SW,222,0.0,3.0,73,0.00,,---,0.00,141.00,VWS V14.01,2013-07-22 23:07:00,
2013-07-22 19:12:00,85.1,75.5,29.90,SW,222,0.0,6.0,73,0.00,,---,0.00,95.00,VWS V14.01,2013-07-22 23:12:00,
2013-07-22 19:17:00,84.9,75.3,29.90,SW,221,6.0,6.0,73,0.00,,---,0.00,116.00,VWS V14.01,2013-07-22 23:17:00,
2013-07-22 19:22:00,84.7,75.5,29.90,SW,219,0.0,6.0,74,0.00,,---,0.00,107.00,VWS V14.01,2013-07-22 23:22:00,
2013-07-22 19:27:00,84.5,75.7,29.90,SW,219,0.0,7.0,75,0.00,,---,0.00,97.00,VWS V14.01,2013-07-22 23:27:00,
2013-07-22 19:32:00,84.4,76.0,29.90,SW,221,0.0,5.0,76,0.00,,---,0.00,90.00,VWS V14.01,2013-07-22 23:32:00,
2013-07-22 19:38:00,84.2,75.8,29.90,SW,217,3.0,6.0,76,0.00,,---,0.00,67.00,VWS V14.01,2013-07-22 23:38:00,
2013-07-22 19:43:00,84.0,75.6,29.89,SW,216,0.0,4.0,76,0.00,,---,0.00,54.00,VWS V14.01,2013-07-22 23:43:00,
2013-07-22 19:48:00,83.8,75.8,29.89,SW,217,0.0,2.0,77,0.00,,---,0.00,44.00,VWS V14.01,2013-07-22 23:48:00,
2013-07-22 19:53:00,83.6,75.6,29.89,SW,215,0.0,5.0,77,0.00,,---,0.00,42.00,VWS V14.01,2013-07-22 23:53:00,
2013-07-22 19:58:00,83.4,75.4,29.89,SW,215,0.0,4.0,77,0.00,,---,0.00,39.00,VWS V14.01,2013-07-22 23:58:00,
2013-07-22 20:04:00,83.2,75.6,29.88,SW,215,0.0,4.0,78,0.00,,---,0.00,33.00,VWS V14.01,2013-07-23 00:04:00,
2013-07-22 20:09:00,83.0,75.4,29.88,SW,215,0.0,3.0,78,0.00,,---,0.00,19.00,VWS V14.01,2013-07-23 00:09:00,
2013-07-22 20:14:00,82.8,75.2,29.88,SW,215,1.0,1.0,78,0.00,,---,0.00,12.00,VWS V14.01,2013-07-23 00:14:00,
2013-07-22 20:19:00,82.6,75.4,29.88,SW,215,4.0,4.0,79,0.00,,---,0.00,9.00,VWS V14.01,2013-07-23 00:19:00,
2013-07-22 20:24:00,82.4,75.2,29.88,SW,215,0.0,1.0,79,0.00,,---,0.00,5.00,VWS V14.01,2013-07-23 00:24:00,
2013-07-22 20:29:00,82.2,75.0,29.88,SW,217,0.0,4.0,79,0.00,,---,0.00,0.00,VWS V14.01,2013-07-23 00:29:00,
2013-07-22 20:34:00,81.9,75.1,29.89,SW,221,6.0,8.0,80,0.00,,---,0.00,0.00,VWS V14.01,2013-07-23 00:34:00,
2013-07-22 20:39:00,81.7,74.9,29.90,SW,234,4.0,13.0,80,0.00,,---,0.00,0.00,VWS V14.01,2013-07-23 00:39:00,
2013-07-22 20:45:00,81.6,75.2,29.90,SW,228,5.0,8.0,81,0.00,,---,0.00,0.00,VWS V14.01,2013-07-23 00:45:00,
2013-07-22 20:50:00,81.5,75.1,29.90,SW,236,5.0,6.0,81,0.00,,---,0.00,0.00,VWS V14.01,2013-07-23 00:50:00,
2013-07-22 20:55:00,81.4,75.0,29.90,SW,236,4.0,17.0,81,0.00,,---,0.00,0.00,VWS V14.01,2013-07-23 00:55:00,
2013-07-22 21:00:00,81.3,74.9,29.90,WSW,239,12.0,19.0,81,0.00,,---,0.00,0.00,VWS V14.01,2013-07-23 01:00:00,
2013-07-22 21:05:00,81.2,74.8,29.91,WSW,242,10.0,18.0,81,0.00,,---,0.00,0.00,VWS V14.01,2013-07-23 01:05:00,
2013-07-22 21:10:00,81.1,74.7,29.91,SW,223,12.0,16.0,81,0.00,,---,0.00,0.00,VWS V14.01,2013-07-23 01:10:00,
2013-07-22 21:15:00,80.9,74.5,29.91,SW,227,12.0,16.0,81,0.00,,---,0.00,0.00,VWS V14.01,2013-07-23 01:15:00,
2013-07-22 21:20:00,80.8,74.4,29.91,SSW,208,8.0,15.0,81,0.00,,---,0.00,0.00,VWS V14.01,2013-07-23 01:20:00,
2013-07-22 21:25:00,80.6,74.2,29.91,WSW,238,14.0,14.0,81,0.00,,---,0.00,0.00,VWS V14.01,2013-07-23 01:25:00,
2013-07-22 21:30:00,80.5,74.1,29.91,SSW,211,4.0,4.0,81,0.00,,---,0.00,0.00,VWS V14.01,2013-07-23 01:30:00,
2013-07-22 21:35:00,80.3,74.3,29.91,SW,223,4.0,4.0,82,0.00,,---,0.00,0.00,VWS V14.01,2013-07-23 01:35:00,
2013-07-22 21:41:00,80.1,74.1,29.91,SW,235,0.0,5.0,82,0.00,,---,0.00,0.00,VWS V14.01,2013-07-23 01:41:00,
2013-07-22 21:46:00,80.0,74.4,29.91,SSW,210,3.0,5.0,83,0.00,,---,0.00,0.00,VWS V14.01,2013-07-23 01:46:00,
2013-07-22 21:51:00,79.7,74.1,29.92,SW,226,5.0,7.0,83,0.00,,---,0.00,0.00,VWS V14.01,2013-07-23 01:51:00,
2013-07-22 21:56:00,79.6,74.0,29.91,SW,230,0.0,5.0,83,0.00,,---,0.00,0.00,VWS V14.01,2013-07-23 01:56:00,
2013-07-22 22:01:00,79.4,74.2,29.92,SW,228,6.0,9.0,84,0.00,,---,0.00,0.00,VWS V14.01,2013-07-23 02:01:00,
2013-07-22 22:06:00,79.3,74.1,29.91,WSW,238,4.0,5.0,84,0.00,,---,0.00,0.00,VWS V14.01,2013-07-23 02:06:00,
2013-07-22 22:11:00,79.1,74.2,29.92,WSW,240,6.0,6.0,85,0.00,,---,0.00,0.00,VWS V14.01,2013-07-23 02:11:00,
2013-07-22 22:16:00,79.0,74.1,29.91,SW,236,3.0,5.0,85,0.00,,---,0.00,0.00,VWS V14.01,2013-07-23 02:16:00,
2013-07-22 22:21:00,78.9,74.0,29.91,SW,226,3.0,6.0,85,0.00,,---,0.00,0.00,VWS V14.01,2013-07-23 02:21:00,
2013-07-22 22:27:00,78.7,73.8,29.92,SW,236,4.0,7.0,85,0.00,,---,0.00,0.00,VWS V14.01,2013-07-23 02:27:00,
2013-07-22 22:32:00,78.7,73.8,29.92,WSW,243,6.0,7.0,85,0.00,,---,0.00,0.00,VWS V14.01,2013-07-23 02:32:00,
2013-07-22 22:37:00,78.6,74.1,29.92,SSW,206,4.0,13.0,86,0.00,,---,0.00,0.00,VWS V14.01,2013-07-23 02:37:00,
2013-07-22 22:42:00,78.5,74.0,29.92,SW,231,5.0,11.0,86,0.00,,---,0.00,0.00,VWS V14.01,2013-07-23 02:42:00,
2013-07-22 22:47:00,78.5,74.0,29.92,SW,231,3.0,11.0,86,0.00,,---,0.00,0.00,VWS V14.01,2013-07-23 02:47:00,
2013-07-22 22:52:00,78.4,73.9,29.92,SW,225,0.0,5.0,86,0.00,,---,0.00,0.00,VWS V14.01,2013-07-23 02:52:00,
2013-07-22 22:57:00,78.3,73.8,29.92,SW,226,5.0,6.0,86,0.00,,---,0.00,0.00,VWS V14.01,2013-07-23 02:57:00,
2013-07-22 23:02:00,78.2,73.7,29.92,SSW,211,9.0,9.0,86,0.00,,---,0.00,0.00,VWS V14.01,2013-07-23 03:02:00,
2013-07-22 23:07:00,78.1,73.9,29.92,SW,232,4.0,7.0,87,0.00,,---,0.00,0.00,VWS V14.01,2013-07-23 03:07:00,
2013-07-22 23:12:00,78.1,73.9,29.92,SW,229,5.0,9.0,87,0.00,,---,0.00,0.00,VWS V14.01,2013-07-23 03:12:00,
2013-07-22 23:17:00,78.0,73.8,29.92,WSW,247,8.0,11.0,87,0.00,,---,0.00,0.00,VWS V14.01,2013-07-23 03:17:00,
2013-07-22 23:23:00,78.0,73.8,29.92,SW,222,5.0,5.0,87,0.00,,---,0.00,0.00,VWS V14.01,2013-07-23 03:23:00,
2013-07-22 23:28:00,78.0,73.8,29.92,SW,228,4.0,15.0,87,0.00,,---,0.00,0.00,VWS V14.01,2013-07-23 03:28:00,
2013-07-22 23:33:00,78.0,73.8,29.92,SSW,209,8.0,12.0,87,0.00,,---,0.00,0.00,VWS V14.01,2013-07-23 03:33:00,
2013-07-22 23:38:00,77.9,73.7,29.92,SW,232,4.0,11.0,87,0.00,,---,0.00,0.00,VWS V14.01,2013-07-23 03:38:00,
2013-07-22 23:43:00,77.9,73.7,29.92,SW,226,4.0,9.0,87,0.00,,---,0.00,0.00,VWS V14.01,2013-07-23 03:43:00,
2013-07-22 23:48:00,77.8,73.6,29.92,SW,221,7.0,13.0,87,0.00,,---,0.00,0.00,VWS V14.01,2013-07-23 03:48:00,
2013-07-22 23:53:00,77.8,73.6,29.92,SW,221,3.0,10.0,87,0.00,,---,0.00,0.00,VWS V14.01,2013-07-23 03:53:00,
2013-07-22 23:58:00,77.7,73.9,29.92,WSW,242,0.0,7.0,88,0.00,,---,0.00,0.00,VWS V14.01,2013-07-23 03:58:00,